Location: A�t Bou Chrif
(32.7193°N, 5.2385°W)
Time: 04:01:06
(UTC+00:00)

Cosmos 2322 Rocket - Pass Details

Date: 08 August 2020
Orbit: 831 x 852 km, 71.0° (Epoch: 20 September)

Event Time Altitude Azimuth Distance (km) Brightness Sun altitude
Rises 23:43:06 0° 335° (NNW) 3,416 6.2 -40.4°
Reaches altitude 10° 23:45:35 10° 332° (NNW) 2,479 5.3 -40.5°
Enters shadow 23:47:27 21° 327° (NNW) 1,805 4.3 -40.6°
